Starlink 11680

operational
NORAD ID: 63554 Int'l Des: 2025-075 Owner: SPXS Country: US Constellation: starlink
LEOCIRCULAR

Über Starlink 11680

Beschreibung wird geladen...

Live-Position

3D-Globus wird geladen...

Nächste Überflüge

Höhenverlauf

Altitude vs Time

uPlot chart will show altitude changes over time

Zweizeiliger Elementsatz

1 63554U 25075G 25352.21974630 .00140038 00000-0 10750-2 0 9992
2 63554 43.0002 285.0423 0001591 269.0385 91.0300 15.70873505 40432
Epoch: 18. Dez. 2025 • Age: 13 hours

Aktueller Status

Höhe 358.7 km
Geschwindigkeit 7.70 km/s
Subsatellitenpunkt 36.66°N, 51.92°E
Startdatum 13. Apr. 2025
Alter 0.6 years
Typ internet

Technische Details

Klassifizierung Payload
Masse 960.00 kg
Trockenmasse 910.00 kg
Gesamtmasse 960.00 kg
Länge 0.30 m
Durchmesser 4.10 m
Spannweite 29.00 m
Form Box + pan
Hersteller SPXS
Bus-Typ Starlink V2MD
Phasenstatus In Orbit
Besitzer/Staat SPXS/US

Große Konstellationen

Loading constellations...